Time,TemperatureF,DewpointF,PressureIn,WindDirection,WindDirectionDegrees,WindSpeedMPH,WindSpeedGustMPH,Humidity,HourlyPrecipIn,Conditions,Clouds,dailyrainin,SoftwareType,DateUTC
2013-07-20 00:00:00,82.8,73.6,30.03,South,180,0.0,0.0,74,0.00,,---,0.00,VWS V13.01,2013-07-20 04:00:00,
2013-07-20 00:01:00,82.8,73.6,30.03,South,180,0.0,0.0,74,0.00,,---,0.00,VWS V13.01,2013-07-20 04:01:00,
2013-07-20 00:06:00,82.8,73.6,30.02,South,180,0.0,0.0,74,0.00,,---,0.00,VWS V13.01,2013-07-20 04:06:00,
2013-07-20 00:11:00,82.8,73.6,30.02,South,180,0.0,0.0,74,0.00,,---,0.00,VWS V13.01,2013-07-20 04:11:00,
2013-07-20 00:16:00,82.8,73.6,30.02,South,180,0.0,0.0,74,0.00,,---,0.00,VWS V13.01,2013-07-20 04:16:00,
2013-07-20 00:21:00,82.6,73.5,30.02,South,180,0.0,0.0,74,0.00,,---,0.00,VWS V13.01,2013-07-20 04:21:00,
2013-07-20 00:26:00,82.8,73.6,30.02,South,180,0.0,0.0,74,0.00,,---,0.00,VWS V13.01,2013-07-20 04:26:00,
2013-07-20 00:31:00,82.8,73.6,30.01,South,180,0.0,0.0,74,0.00,,---,0.00,VWS V13.01,2013-07-20 04:31:00,
2013-07-20 00:36:00,82.6,73.5,30.01,South,180,0.0,0.0,74,0.00,,---,0.00,VWS V13.01,2013-07-20 04:36:00,
2013-07-20 00:41:00,82.6,73.9,30.00,South,180,0.0,0.0,75,0.00,,---,0.00,VWS V13.01,2013-07-20 04:41:00,
2013-07-20 00:46:00,82.6,73.9,30.00,South,180,0.0,0.0,75,0.00,,---,0.00,VWS V13.01,2013-07-20 04:46:00,
2013-07-20 00:51:00,82.6,73.9,30.00,South,180,0.0,0.0,75,0.00,,---,0.00,VWS V13.01,2013-07-20 04:51:00,
2013-07-20 00:56:00,82.4,73.7,29.99,South,180,0.0,0.0,75,0.00,,---,0.00,VWS V13.01,2013-07-20 04:56:00,
2013-07-20 01:01:00,82.4,73.7,29.99,SSE,158,0.0,0.0,75,0.00,,---,0.00,VWS V13.01,2013-07-20 05:01:00,
2013-07-20 01:06:00,82.2,73.5,29.99,SSE,158,0.0,0.9,75,0.00,,---,0.00,VWS V13.01,2013-07-20 05:06:00,
2013-07-20 01:11:00,82.2,73.5,29.98,SSE,158,0.0,0.9,75,0.00,,---,0.00,VWS V13.01,2013-07-20 05:11:00,
2013-07-20 01:16:00,82.2,73.5,29.98,ESE,112,0.0,0.9,75,0.00,,---,0.00,VWS V13.01,2013-07-20 05:16:00,
2013-07-20 01:21:00,82.0,73.3,29.98,ESE,112,0.0,0.9,75,0.00,,---,0.00,VWS V13.01,2013-07-20 05:21:00,
2013-07-20 01:26:00,82.0,73.3,29.98,ESE,112,0.0,0.9,75,0.00,,---,0.00,VWS V13.01,2013-07-20 05:26:00,
2013-07-20 01:31:00,81.9,73.2,29.98,ESE,112,0.0,0.9,75,0.00,,---,0.00,VWS V13.01,2013-07-20 05:31:00,
2013-07-20 01:36:00,81.7,73.0,29.98,ESE,112,0.0,0.9,75,0.00,,---,0.00,VWS V13.01,2013-07-20 05:36:00,
2013-07-20 01:41:00,81.7,73.0,29.98,ESE,112,0.0,0.9,75,0.00,,---,0.00,VWS V13.01,2013-07-20 05:41:00,
2013-07-20 01:46:00,81.5,72.8,29.98,ESE,112,0.0,0.9,75,0.00,,---,0.00,VWS V13.01,2013-07-20 05:46:00,
2013-07-20 01:51:00,81.5,72.8,29.99,ESE,112,0.0,0.9,75,0.00,,---,0.00,VWS V13.01,2013-07-20 05:51:00,
2013-07-20 01:56:00,81.5,72.8,29.98,ESE,112,0.0,0.9,75,0.00,,---,0.00,VWS V13.01,2013-07-20 05:56:00,
2013-07-20 02:01:00,81.5,72.8,29.98,ESE,112,0.0,0.0,75,0.00,,---,0.00,VWS V13.01,2013-07-20 06:01:00,
2013-07-20 02:06:00,81.3,72.6,29.98,ESE,112,0.0,0.0,75,0.00,,---,0.00,VWS V13.01,2013-07-20 06:06:00,
2013-07-20 02:11:00,81.3,72.6,29.98,ESE,112,0.0,0.0,75,0.00,,---,0.00,VWS V13.01,2013-07-20 06:11:00,
2013-07-20 02:16:00,81.3,72.6,29.97,ESE,112,0.0,0.0,75,0.00,,---,0.00,VWS V13.01,2013-07-20 06:16:00,
2013-07-20 02:21:00,81.3,72.6,29.97,ESE,112,0.0,0.0,75,0.00,,---,0.00,VWS V13.01,2013-07-20 06:21:00,
2013-07-20 02:26:00,81.0,72.3,29.96,ESE,112,0.0,0.0,75,0.00,,---,0.00,VWS V13.01,2013-07-20 06:26:00,
2013-07-20 02:31:00,81.0,72.7,29.96,ESE,112,0.0,0.0,76,0.00,,---,0.00,VWS V13.01,2013-07-20 06:31:00,
2013-07-20 02:36:00,81.0,72.7,29.95,ESE,112,0.0,0.0,76,0.00,,---,0.00,VWS V13.01,2013-07-20 06:36:00,
2013-07-20 02:41:00,81.0,72.7,29.95,ESE,112,0.0,0.0,76,0.00,,---,0.00,VWS V13.01,2013-07-20 06:41:00,
2013-07-20 02:46:00,80.8,72.5,29.96,ESE,112,0.0,0.0,76,0.00,,---,0.00,VWS V13.01,2013-07-20 06:46:00,
2013-07-20 02:51:00,80.8,72.5,29.95,ESE,112,0.0,0.0,76,0.00,,---,0.00,VWS V13.01,2013-07-20 06:51:00,
2013-07-20 02:56:00,80.8,72.5,29.95,ESE,112,0.0,0.0,76,0.00,,---,0.00,VWS V13.01,2013-07-20 06:56:00,
2013-07-20 03:01:00,80.8,72.5,29.95,ESE,112,0.0,0.0,76,0.00,,---,0.00,VWS V13.01,2013-07-20 07:01:00,
2013-07-20 03:06:00,80.8,72.5,29.96,ESE,112,0.0,0.0,76,0.00,,---,0.00,VWS V13.01,2013-07-20 07:06:00,
2013-07-20 03:11:00,80.8,73.3,29.96,ESE,112,0.0,0.0,78,0.00,,---,0.00,VWS V13.01,2013-07-20 07:11:00,
2013-07-20 03:16:00,81.0,73.5,29.95,ESE,112,0.0,0.0,78,0.00,,---,0.00,VWS V13.01,2013-07-20 07:16:00,
2013-07-20 03:21:00,80.8,73.3,29.95,ESE,112,0.0,0.0,78,0.00,,---,0.00,VWS V13.01,2013-07-20 07:21:00,
2013-07-20 03:26:00,81.0,73.5,29.95,ESE,112,0.0,0.0,78,0.00,,---,0.00,VWS V13.01,2013-07-20 07:26:00,
2013-07-20 03:31:00,80.8,73.3,29.95,ESE,112,0.0,0.0,78,0.00,,---,0.00,VWS V13.01,2013-07-20 07:31:00,
2013-07-20 03:36:00,80.8,73.3,29.95,ESE,112,0.0,0.0,78,0.00,,---,0.00,VWS V13.01,2013-07-20 07:36:00,
2013-07-20 03:41:00,80.6,73.1,29.95,ESE,112,0.0,0.0,78,0.00,,---,0.00,VWS V13.01,2013-07-20 07:41:00,
2013-07-20 03:46:00,80.6,73.1,29.95,ESE,112,0.0,0.0,78,0.00,,---,0.00,VWS V13.01,2013-07-20 07:46:00,
2013-07-20 03:51:00,80.4,72.9,29.95,ESE,112,0.0,0.0,78,0.00,,---,0.00,VWS V13.01,2013-07-20 07:51:00,
2013-07-20 03:56:00,80.4,72.9,29.94,ESE,112,0.0,0.0,78,0.00,,---,0.00,VWS V13.01,2013-07-20 07:56:00,
2013-07-20 04:01:00,80.4,72.9,29.94,ESE,112,0.0,0.0,78,0.00,,---,0.00,VWS V13.01,2013-07-20 08:01:00,
2013-07-20 04:06:00,80.2,72.8,29.95,ESE,112,0.0,0.0,78,0.00,,---,0.00,VWS V13.01,2013-07-20 08:06:00,
2013-07-20 04:11:00,80.2,72.8,29.95,ESE,112,0.0,0.0,78,0.00,,---,0.00,VWS V13.01,2013-07-20 08:11:00,
2013-07-20 04:16:00,80.2,72.8,29.95,ESE,112,0.0,0.0,78,0.00,,---,0.00,VWS V13.01,2013-07-20 08:16:00,
2013-07-20 04:21:00,80.2,72.8,29.95,ESE,112,0.0,0.0,78,0.00,,---,0.00,VWS V13.01,2013-07-20 08:21:00,
2013-07-20 04:26:00,80.2,72.8,29.95,ESE,112,0.0,0.0,78,0.00,,---,0.00,VWS V13.01,2013-07-20 08:26:00,
2013-07-20 04:31:00,80.1,72.6,29.95,ESE,112,0.0,0.0,78,0.00,,---,0.00,VWS V13.01,2013-07-20 08:31:00,
2013-07-20 04:36:00,80.1,73.0,29.95,ESE,112,0.0,0.0,79,0.00,,---,0.00,VWS V13.01,2013-07-20 08:36:00,
2013-07-20 04:41:00,80.1,73.0,29.96,ESE,112,0.0,0.0,79,0.00,,---,0.00,VWS V13.01,2013-07-20 08:41:00,
2013-07-20 04:46:00,80.1,73.3,29.96,ESE,112,0.0,0.0,80,0.00,,---,0.00,VWS V13.01,2013-07-20 08:46:00,
2013-07-20 04:51:00,80.1,73.3,29.96,ESE,112,0.0,0.0,80,0.00,,---,0.00,VWS V13.01,2013-07-20 08:51:00,
2013-07-20 04:56:00,80.1,73.3,29.96,ESE,112,0.0,0.0,80,0.00,,---,0.00,VWS V13.01,2013-07-20 08:56:00,
2013-07-20 05:01:00,79.9,73.2,29.96,ESE,112,0.0,0.0,80,0.00,,---,0.00,VWS V13.01,2013-07-20 09:01:00,
2013-07-20 05:06:00,80.1,73.3,29.96,ESE,112,0.0,0.0,80,0.00,,---,0.00,VWS V13.01,2013-07-20 09:06:00,
2013-07-20 05:11:00,80.1,73.3,29.96,ESE,112,0.0,0.0,80,0.00,,---,0.00,VWS V13.01,2013-07-20 09:11:00,
2013-07-20 05:16:00,80.1,73.3,29.96,ESE,112,0.0,0.0,80,0.00,,---,0.00,VWS V13.01,2013-07-20 09:16:00,
2013-07-20 05:21:00,79.9,73.2,29.96,ESE,112,0.0,0.0,80,0.00,,---,0.00,VWS V13.01,2013-07-20 09:21:00,
2013-07-20 05:26:00,79.9,73.2,29.96,ESE,112,0.0,0.0,80,0.00,,---,0.00,VWS V13.01,2013-07-20 09:26:00,
2013-07-20 05:31:00,79.9,73.2,29.96,ESE,112,0.0,0.0,80,0.00,,---,0.00,VWS V13.01,2013-07-20 09:31:00,
2013-07-20 05:36:00,79.9,73.2,29.96,ESE,112,0.0,0.0,80,0.00,,---,0.00,VWS V13.01,2013-07-20 09:36:00,
2013-07-20 05:41:00,79.9,73.2,29.96,ESE,112,0.0,0.0,80,0.00,,---,0.00,VWS V13.01,2013-07-20 09:41:00,
2013-07-20 05:46:00,79.9,73.2,29.96,ESE,112,0.0,0.0,80,0.00,,---,0.00,VWS V13.01,2013-07-20 09:46:00,
2013-07-20 05:51:00,79.9,73.2,29.96,ESE,112,0.0,0.0,80,0.00,,---,0.00,VWS V13.01,2013-07-20 09:51:00,
2013-07-20 05:56:00,79.9,73.2,29.96,ESE,112,0.0,0.0,80,0.00,,---,0.00,VWS V13.01,2013-07-20 09:56:00,
2013-07-20 06:01:00,79.9,73.2,29.96,ESE,112,0.0,0.0,80,0.00,,---,0.00,VWS V13.01,2013-07-20 10:01:00,
2013-07-20 06:06:00,80.1,73.3,29.96,ESE,112,0.0,0.0,80,0.00,,---,0.00,VWS V13.01,2013-07-20 10:06:00,
2013-07-20 06:11:00,80.1,73.7,29.96,ESE,112,0.0,0.0,81,0.00,,---,0.00,VWS V13.01,2013-07-20 10:11:00,
2013-07-20 06:16:00,80.1,73.7,29.96,ESE,112,0.0,0.0,81,0.00,,---,0.00,VWS V13.01,2013-07-20 10:16:00,
2013-07-20 06:21:00,80.1,73.7,29.96,ESE,112,0.0,0.0,81,0.00,,---,0.00,VWS V13.01,2013-07-20 10:21:00,
2013-07-20 06:26:00,80.2,73.9,29.96,ESE,112,0.0,0.0,81,0.00,,---,0.00,VWS V13.01,2013-07-20 10:26:00,
2013-07-20 06:31:00,80.4,74.1,29.96,ESE,112,0.0,0.0,81,0.00,,---,0.00,VWS V13.01,2013-07-20 10:31:00,
2013-07-20 06:36:00,80.2,73.9,29.96,ESE,112,0.0,0.0,81,0.00,,---,0.00,VWS V13.01,2013-07-20 10:36:00,
2013-07-20 06:41:00,80.2,73.9,29.96,SE,135,0.0,0.0,81,0.00,,---,0.00,VWS V13.01,2013-07-20 10:41:00,
2013-07-20 06:46:00,80.2,73.9,29.96,SE,135,0.0,0.9,81,0.00,,---,0.00,VWS V13.01,2013-07-20 10:46:00,
2013-07-20 06:51:00,80.4,74.1,29.96,SE,135,0.0,0.9,81,0.00,,---,0.00,VWS V13.01,2013-07-20 10:51:00,
2013-07-20 06:56:00,80.4,74.1,29.96,SE,135,0.0,0.9,81,0.00,,---,0.00,VWS V13.01,2013-07-20 10:56:00,
2013-07-20 07:01:00,80.4,74.1,29.96,SE,135,0.0,0.0,81,0.00,,---,0.00,VWS V13.01,2013-07-20 11:01:00,
2013-07-20 07:06:00,80.4,74.1,29.96,SE,135,0.0,0.0,81,0.00,,---,0.00,VWS V13.01,2013-07-20 11:06:00,
2013-07-20 07:11:00,80.6,74.2,29.96,ESE,112,0.0,2.0,81,0.00,,---,0.00,VWS V13.01,2013-07-20 11:11:00,
2013-07-20 07:16:00,80.8,74.4,29.96,SE,135,0.0,2.0,81,0.00,,---,0.00,VWS V13.01,2013-07-20 11:16:00,
2013-07-20 07:21:00,81.0,74.6,29.96,SE,135,0.0,2.0,81,0.00,,---,0.00,VWS V13.01,2013-07-20 11:21:00,
2013-07-20 07:26:00,81.0,74.6,29.96,SE,135,0.0,2.0,81,0.00,,---,0.00,VWS V13.01,2013-07-20 11:26:00,
2013-07-20 07:31:00,81.1,74.8,29.96,SE,135,0.0,2.0,81,0.00,,---,0.00,VWS V13.01,2013-07-20 11:31:00,
2013-07-20 07:36:00,81.1,74.8,29.97,SE,135,0.0,2.0,81,0.00,,---,0.00,VWS V13.01,2013-07-20 11:36:00,
2013-07-20 07:41:00,81.3,74.9,29.96,SE,135,0.0,2.0,81,0.00,,---,0.00,VWS V13.01,2013-07-20 11:41:00,
2013-07-20 07:46:00,81.3,74.9,29.96,SE,135,0.0,2.0,81,0.00,,---,0.00,VWS V13.01,2013-07-20 11:46:00,
2013-07-20 07:51:00,81.5,75.1,29.96,SE,135,0.0,2.0,81,0.00,,---,0.00,VWS V13.01,2013-07-20 11:51:00,
2013-07-20 07:56:00,81.7,75.3,29.97,SE,135,0.0,2.0,81,0.00,,---,0.00,VWS V13.01,2013-07-20 11:56:00,
2013-07-20 08:01:00,81.9,75.5,29.97,SE,135,0.0,0.0,81,0.00,,---,0.00,VWS V13.01,2013-07-20 12:01:00,
2013-07-20 08:06:00,82.9,76.5,29.97,SE,135,0.0,0.0,81,0.00,,---,0.00,VWS V13.01,2013-07-20 12:06:00,
2013-07-20 08:11:00,85.5,79.0,29.97,SE,135,0.0,0.0,81,0.00,,---,0.00,VWS V13.01,2013-07-20 12:11:00,
2013-07-20 08:16:00,87.6,81.1,29.97,SE,135,0.0,0.0,81,0.00,,---,0.00,VWS V13.01,2013-07-20 12:16:00,
2013-07-20 08:21:00,89.2,82.7,29.97,SE,135,0.0,0.0,81,0.00,,---,0.00,VWS V13.01,2013-07-20 12:21:00,
2013-07-20 08:26:00,90.5,83.9,29.97,SE,135,0.0,0.0,81,0.00,,---,0.00,VWS V13.01,2013-07-20 12:26:00,
2013-07-20 08:31:00,91.6,84.9,29.98,SE,135,0.0,2.2,81,0.00,,---,0.00,VWS V13.01,2013-07-20 12:31:00,
2013-07-20 08:36:00,91.9,85.3,29.97,SE,135,0.0,2.7,81,0.00,,---,0.00,VWS V13.01,2013-07-20 12:36:00,
2013-07-20 08:41:00,91.6,84.9,29.98,SE,135,0.0,2.7,81,0.00,,---,0.00,VWS V13.01,2013-07-20 12:41:00,
2013-07-20 08:46:00,90.9,84.2,29.98,SE,135,0.0,3.6,81,0.00,,---,0.00,VWS V13.01,2013-07-20 12:46:00,
2013-07-20 08:51:00,90.7,84.1,29.98,SSE,158,0.0,3.6,81,0.00,,---,0.00,VWS V13.01,2013-07-20 12:51:00,
2013-07-20 08:56:00,90.3,83.7,29.98,SE,135,2.7,4.5,81,0.00,,---,0.00,VWS V13.01,2013-07-20 12:56:00,
2013-07-20 09:01:00,89.4,82.8,29.99,SSE,158,0.0,2.0,81,0.00,,---,0.00,VWS V13.01,2013-07-20 13:01:00,
2013-07-20 09:06:00,88.7,82.1,29.99,SE,135,0.0,2.0,81,0.00,,---,0.00,VWS V13.01,2013-07-20 13:06:00,
2013-07-20 09:11:00,88.2,81.6,29.99,SE,135,0.0,7.2,81,0.00,,---,0.00,VWS V13.01,2013-07-20 13:11:00,
2013-07-20 09:16:00,87.6,81.1,29.99,ESE,112,0.0,7.2,81,0.00,,---,0.00,VWS V13.01,2013-07-20 13:16:00,
2013-07-20 09:21:00,87.3,80.7,29.99,SE,135,0.0,7.2,81,0.00,,---,0.00,VWS V13.01,2013-07-20 13:21:00,
2013-07-20 09:26:00,86.9,80.4,29.99,ESE,112,3.6,7.2,81,0.00,,---,0.00,VWS V13.01,2013-07-20 13:26:00,
2013-07-20 09:31:00,87.1,80.5,29.99,SE,135,0.0,7.2,81,0.00,,---,0.00,VWS V13.01,2013-07-20 13:31:00,
2013-07-20 09:36:00,86.9,80.4,29.99,ESE,112,0.0,7.2,81,0.00,,---,0.00,VWS V13.01,2013-07-20 13:36:00,
2013-07-20 09:41:00,86.9,80.4,29.99,SE,135,6.3,7.2,81,0.00,,---,0.00,VWS V13.01,2013-07-20 13:41:00,
2013-07-20 09:46:00,86.4,79.8,30.00,SE,135,0.0,10.3,81,0.00,,---,0.00,VWS V13.01,2013-07-20 13:46:00,
2013-07-20 09:51:00,85.6,79.1,30.00,ESE,112,0.0,10.3,81,0.00,,---,0.00,VWS V13.01,2013-07-20 13:51:00,
2013-07-20 09:56:00,84.7,78.3,30.01,SE,135,0.0,10.3,81,0.00,,---,0.00,VWS V13.01,2013-07-20 13:56:00,
2013-07-20 10:01:00,84.4,77.9,30.01,SE,135,0.0,0.0,81,0.00,,---,0.00,VWS V13.01,2013-07-20 14:01:00,
2013-07-20 10:06:00,84.0,72.8,30.01,SE,135,0.0,0.0,69,0.00,,---,0.00,VWS V13.01,2013-07-20 14:06:00,
2013-07-20 10:11:00,84.4,73.1,30.01,SE,135,0.0,0.0,69,0.00,,---,0.00,VWS V13.01,2013-07-20 14:11:00,
2013-07-20 10:16:00,84.4,73.1,30.01,SE,135,0.0,0.0,69,0.00,,---,0.00,VWS V13.01,2013-07-20 14:16:00,
2013-07-20 10:21:00,84.7,73.9,30.01,SE,135,0.0,0.0,70,0.00,,---,0.00,VWS V13.01,2013-07-20 14:21:00,
2013-07-20 10:26:00,84.9,74.1,30.01,SE,135,0.0,0.0,70,0.00,,---,0.00,VWS V13.01,2013-07-20 14:26:00,
2013-07-20 10:31:00,85.1,74.2,30.01,SE,135,2.5,6.3,70,0.00,,---,0.00,VWS V13.01,2013-07-20 14:31:00,
2013-07-20 10:36:00,85.1,74.2,30.01,SE,135,0.0,6.3,70,0.00,,---,0.00,VWS V13.01,2013-07-20 14:36:00,
2013-07-20 10:41:00,85.1,74.2,30.01,SE,135,0.0,6.3,70,0.00,,---,0.00,VWS V13.01,2013-07-20 14:41:00,
2013-07-20 10:46:00,85.5,74.6,30.01,SE,135,0.0,6.3,70,0.00,,---,0.00,VWS V13.01,2013-07-20 14:46:00,
2013-07-20 10:51:00,85.6,72.5,30.01,SE,135,0.0,6.3,65,0.00,,---,0.00,VWS V13.01,2013-07-20 14:51:00,
2013-07-20 10:56:00,85.8,72.7,30.01,SE,135,0.0,6.3,65,0.00,,---,0.00,VWS V13.01,2013-07-20 14:56:00,
2013-07-20 11:01:00,86.2,73.0,30.01,ESE,112,0.0,0.0,65,0.00,,---,0.00,VWS V13.01,2013-07-20 15:01:00,
2013-07-20 11:06:00,86.4,73.2,30.01,ESE,112,0.0,0.0,65,0.00,,---,0.00,VWS V13.01,2013-07-20 15:06:00,
2013-07-20 11:11:00,86.4,73.2,30.01,ESE,112,0.0,0.0,65,0.00,,---,0.00,VWS V13.01,2013-07-20 15:11:00,
2013-07-20 11:16:00,86.4,73.2,30.01,SE,135,0.0,3.6,65,0.00,,---,0.00,VWS V13.01,2013-07-20 15:16:00,
2013-07-20 11:21:00,86.4,73.2,30.01,SE,135,0.0,7.8,65,0.00,,---,0.00,VWS V13.01,2013-07-20 15:21:00,
2013-07-20 11:26:00,86.4,73.2,30.01,SE,135,0.0,7.8,65,0.00,,---,0.00,VWS V13.01,2013-07-20 15:26:00,
2013-07-20 11:31:00,86.7,73.6,30.01,ESE,112,2.0,7.8,65,0.00,,---,0.00,VWS V13.01,2013-07-20 15:31:00,
2013-07-20 11:36:00,86.9,73.7,30.01,SE,135,0.0,7.8,65,0.00,,---,0.00,VWS V13.01,2013-07-20 15:36:00,
2013-07-20 11:41:00,87.4,74.2,30.01,SE,135,2.2,7.8,65,0.00,,---,0.00,VWS V13.01,2013-07-20 15:41:00,
2013-07-20 11:46:00,88.5,75.3,30.01,South,180,0.0,7.8,65,0.00,,---,0.00,VWS V13.01,2013-07-20 15:46:00,
2013-07-20 11:51:00,89.2,75.9,30.01,South,180,0.0,7.8,65,0.00,,---,0.00,VWS V13.01,2013-07-20 15:51:00,
2013-07-20 11:56:00,89.4,76.1,30.00,SW,225,0.0,7.8,65,0.00,,---,0.00,VWS V13.01,2013-07-20 15:56:00,
2013-07-20 12:01:00,90.1,76.8,30.00,SSE,158,1.1,5.1,65,0.00,,---,0.00,VWS V13.01,2013-07-20 16:01:00,
2013-07-20 12:06:00,90.9,77.5,30.00,South,180,0.0,5.4,65,0.00,,---,0.00,VWS V13.01,2013-07-20 16:06:00,
2013-07-20 12:11:00,91.6,78.2,30.00,SSE,158,3.1,5.8,65,0.00,,---,0.00,VWS V13.01,2013-07-20 16:11:00,
2013-07-20 12:16:00,92.1,78.7,30.00,SE,135,0.0,9.2,65,0.00,,---,0.00,VWS V13.01,2013-07-20 16:16:00,
2013-07-20 12:21:00,92.1,78.7,30.00,SSE,158,0.0,9.6,65,0.00,,---,0.00,VWS V13.01,2013-07-20 16:21:00,
2013-07-20 12:26:00,92.3,72.7,30.00,NNW,338,0.0,9.6,53,0.00,,---,0.00,VWS V13.01,2013-07-20 16:26:00,
2013-07-20 12:31:00,92.3,72.7,30.00,South,180,0.0,9.6,53,0.00,,---,0.00,VWS V13.01,2013-07-20 16:31:00,
2013-07-20 12:36:00,91.9,72.4,30.00,SSE,158,6.5,9.6,53,0.00,,---,0.00,VWS V13.01,2013-07-20 16:36:00,
2013-07-20 12:41:00,91.9,72.4,30.00,SSE,158,0.0,9.6,53,0.00,,---,0.00,VWS V13.01,2013-07-20 16:41:00,
2013-07-20 12:46:00,92.5,72.9,30.00,South,180,0.0,9.6,53,0.00,,---,0.00,VWS V13.01,2013-07-20 16:46:00,
2013-07-20 12:51:00,92.5,72.9,30.00,SSE,158,0.0,9.6,53,0.00,,---,0.00,VWS V13.01,2013-07-20 16:51:00,
2013-07-20 12:56:00,91.8,71.7,30.00,SSE,158,0.0,9.6,52,0.00,,---,0.00,VWS V13.01,2013-07-20 16:56:00,
2013-07-20 13:01:00,91.6,71.5,30.00,SSW,202,0.0,4.9,52,0.00,,---,0.00,VWS V13.01,2013-07-20 17:01:00,
2013-07-20 13:06:00,91.8,71.7,30.00,SSE,158,9.2,9.2,52,0.00,,---,0.00,VWS V13.01,2013-07-20 17:06:00,
2013-07-20 13:11:00,92.3,72.1,30.00,SE,135,0.0,9.2,52,0.00,,---,0.00,VWS V13.01,2013-07-20 17:11:00,
2013-07-20 13:16:00,92.5,72.3,30.00,SSE,158,5.1,9.8,52,0.00,,---,0.00,VWS V13.01,2013-07-20 17:16:00,
2013-07-20 13:21:00,92.3,71.6,30.00,SW,225,3.4,9.8,51,0.00,,---,0.00,VWS V13.01,2013-07-20 17:21:00,
2013-07-20 13:26:00,91.8,71.1,30.00,South,180,1.8,11.2,51,0.00,,---,0.00,VWS V13.01,2013-07-20 17:26:00,
2013-07-20 13:31:00,91.0,70.4,30.00,South,180,0.0,11.2,51,0.00,,---,0.00,VWS V13.01,2013-07-20 17:31:00,
2013-07-20 13:36:00,90.5,69.9,30.00,SW,225,0.0,11.2,51,0.00,,---,0.00,VWS V13.01,2013-07-20 17:36:00,
2013-07-20 13:41:00,90.0,69.4,30.00,South,180,3.6,11.2,51,0.00,,---,0.00,VWS V13.01,2013-07-20 17:41:00,
2013-07-20 13:46:00,89.4,68.9,29.99,South,180,0.0,11.2,51,0.00,,---,0.00,VWS V13.01,2013-07-20 17:46:00,
2013-07-20 13:51:00,89.4,68.9,29.99,SE,135,3.6,11.2,51,0.00,,---,0.00,VWS V13.01,2013-07-20 17:51:00,
2013-07-20 13:56:00,89.1,68.6,29.99,SSE,158,4.9,11.2,51,0.00,,---,0.00,VWS V13.01,2013-07-20 17:56:00,
2013-07-20 14:01:00,88.9,68.4,29.98,SE,135,0.0,4.7,51,0.00,,---,0.00,VWS V13.01,2013-07-20 18:01:00,
2013-07-20 14:06:00,89.1,68.6,29.99,ESE,112,1.3,6.5,51,0.00,,---,0.00,VWS V13.01,2013-07-20 18:06:00,
2013-07-20 14:11:00,89.2,71.5,29.97,SSW,202,3.1,8.1,56,0.00,,---,0.00,VWS V13.01,2013-07-20 18:11:00,
2013-07-20 14:16:00,90.3,72.5,29.97,South,180,0.0,8.1,56,0.00,,---,0.00,VWS V13.01,2013-07-20 18:16:00,
2013-07-20 14:22:00,91.0,72.6,29.96,SSW,202,0.0,8.3,55,0.00,,---,0.00,VWS V13.01,2013-07-20 18:22:00,
2013-07-20 14:28:00,90.9,72.5,29.96,South,180,0.0,8.3,55,0.00,,---,0.00,VWS V13.01,2013-07-20 18:28:00,
2013-07-20 14:33:00,90.9,72.5,29.96,SSE,158,4.5,8.3,55,0.00,,---,0.00,VWS V13.01,2013-07-20 18:33:00,
2013-07-20 14:38:00,91.6,73.1,29.96,South,180,4.0,8.3,55,0.00,,---,0.00,VWS V13.01,2013-07-20 18:38:00,
2013-07-20 14:43:00,92.1,73.6,29.96,SSE,158,2.5,8.3,55,0.00,,---,0.00,VWS V13.01,2013-07-20 18:43:00,
2013-07-20 14:48:00,91.6,73.1,29.95,South,180,0.0,10.1,55,0.00,,---,0.00,VWS V13.01,2013-07-20 18:48:00,
2013-07-20 14:53:00,91.4,66.4,29.95,SSE,158,0.0,10.1,44,0.00,,---,0.00,VWS V13.01,2013-07-20 18:53:00,
2013-07-20 14:58:00,91.0,66.1,29.95,SSE,158,3.8,10.1,44,0.00,,---,0.00,VWS V13.01,2013-07-20 18:58:00,
2013-07-20 15:04:00,90.9,65.9,29.95,SSE,158,2.5,5.4,44,0.00,,---,0.00,VWS V13.01,2013-07-20 19:04:00,
2013-07-20 15:09:00,90.5,65.6,29.95,SE,135,2.0,7.6,44,0.00,,---,0.00,VWS V13.01,2013-07-20 19:09:00,
2013-07-20 15:14:00,90.3,65.5,29.95,SE,135,0.0,7.6,44,0.00,,---,0.00,VWS V13.01,2013-07-20 19:14:00,
2013-07-20 15:19:00,90.3,69.8,29.95,SSE,158,0.0,7.6,51,0.00,,---,0.00,VWS V13.01,2013-07-20 19:19:00,
2013-07-20 15:24:00,90.0,69.4,29.95,South,180,0.0,7.6,51,0.00,,---,0.00,VWS V13.01,2013-07-20 19:24:00,
2013-07-20 15:29:00,90.0,69.4,29.95,South,180,0.0,7.6,51,0.00,,---,0.00,VWS V13.01,2013-07-20 19:29:00,
2013-07-20 15:35:00,89.4,68.9,29.95,East,90,1.8,7.6,51,0.00,,---,0.00,VWS V13.01,2013-07-20 19:35:00,
2013-07-20 15:40:00,89.4,68.9,29.95,SE,135,6.0,7.6,51,0.00,,---,0.00,VWS V13.01,2013-07-20 19:40:00,
2013-07-20 15:45:00,89.4,68.9,29.95,SSE,158,7.6,7.6,51,0.00,,---,0.00,VWS V13.01,2013-07-20 19:45:00,
2013-07-20 15:50:00,89.2,70.4,29.96,ESE,112,0.0,7.6,54,0.00,,---,0.00,VWS V13.01,2013-07-20 19:50:00,
2013-07-20 15:55:00,89.4,70.6,29.96,SE,135,3.6,7.6,54,0.00,,---,0.00,VWS V13.01,2013-07-20 19:55:00,
2013-07-20 16:00:00,89.4,70.6,29.96,SE,135,3.6,4.7,54,0.00,,---,0.00,VWS V13.01,2013-07-20 20:00:00,
2013-07-20 16:05:00,89.6,70.8,29.96,SE,135,8.1,8.1,54,0.00,,---,0.00,VWS V13.01,2013-07-20 20:05:00,
2013-07-20 16:10:00,89.2,70.4,29.96,SE,135,0.0,8.1,54,0.00,,---,0.00,VWS V13.01,2013-07-20 20:10:00,
2013-07-20 16:16:00,89.6,70.8,29.96,SSE,158,3.8,8.1,54,0.00,,---,0.00,VWS V13.01,2013-07-20 20:16:00,
2013-07-20 16:21:00,89.8,71.5,29.96,SW,225,0.0,8.1,55,0.00,,---,0.00,VWS V13.01,2013-07-20 20:21:00,
2013-07-20 16:26:00,90.0,71.6,29.96,ESE,112,1.8,8.1,55,0.00,,---,0.00,VWS V13.01,2013-07-20 20:26:00,
2013-07-20 16:31:00,89.8,71.5,29.97,South,180,0.0,8.1,55,0.00,,---,0.00,VWS V13.01,2013-07-20 20:31:00,
2013-07-20 16:36:00,89.4,71.1,29.97,SE,135,0.0,8.1,55,0.00,,---,0.00,VWS V13.01,2013-07-20 20:36:00,
2013-07-20 16:41:00,89.2,71.0,29.96,SSE,158,0.0,8.1,55,0.00,,---,0.00,VWS V13.01,2013-07-20 20:41:00,
2013-07-20 16:46:00,89.1,70.8,29.96,SSE,158,1.6,8.1,55,0.00,,---,0.00,VWS V13.01,2013-07-20 20:46:00,
2013-07-20 16:52:00,88.7,70.5,29.96,SSW,202,0.0,8.1,55,0.00,,---,0.00,VWS V13.01,2013-07-20 20:52:00,
2013-07-20 16:57:00,88.7,70.5,29.96,South,180,0.0,8.1,55,0.00,,---,0.00,VWS V13.01,2013-07-20 20:57:00,
2013-07-20 17:01:00,88.7,70.5,29.96,SSW,202,0.0,3.8,55,0.00,,---,0.00,VWS V13.01,2013-07-20 21:01:00,
2013-07-20 17:07:00,88.5,70.3,29.96,SSE,158,0.0,5.8,55,0.00,,---,0.00,VWS V13.01,2013-07-20 21:07:00,
2013-07-20 17:11:00,88.2,70.0,29.95,SSW,202,0.0,5.8,55,0.00,,---,0.00,VWS V13.01,2013-07-20 21:11:00,
2013-07-20 17:17:00,88.0,68.7,29.95,SW,225,0.0,5.8,53,0.00,,---,0.00,VWS V13.01,2013-07-20 21:17:00,
2013-07-20 17:22:00,88.2,68.9,29.95,SW,225,0.0,5.8,53,0.00,,---,0.00,VWS V13.01,2013-07-20 21:22:00,
2013-07-20 17:27:00,88.0,68.7,29.95,South,180,0.0,5.8,53,0.00,,---,0.00,VWS V13.01,2013-07-20 21:27:00,
2013-07-20 17:32:00,88.0,68.7,29.95,South,180,0.0,5.8,53,0.00,,---,0.00,VWS V13.01,2013-07-20 21:32:00,
2013-07-20 17:37:00,88.0,68.7,29.95,SSE,158,0.0,5.8,53,0.00,,---,0.00,VWS V13.01,2013-07-20 21:37:00,
2013-07-20 17:43:00,87.6,68.4,29.95,ESE,112,0.0,5.8,53,0.00,,---,0.00,VWS V13.01,2013-07-20 21:43:00,
2013-07-20 17:48:00,87.3,68.1,29.95,SSE,158,0.0,5.8,53,0.00,,---,0.00,VWS V13.01,2013-07-20 21:48:00,
2013-07-20 17:54:00,87.1,67.9,29.95,South,180,0.0,5.8,53,0.00,,---,0.00,VWS V13.01,2013-07-20 21:54:00,
2013-07-20 17:59:00,86.7,67.6,29.95,South,180,0.0,5.8,53,0.00,,---,0.00,VWS V13.01,2013-07-20 21:59:00,
2013-07-20 18:04:00,86.5,67.4,29.94,SE,135,3.1,3.1,53,0.00,,---,0.00,VWS V13.01,2013-07-20 22:04:00,
2013-07-20 18:09:00,86.4,67.2,29.94,SSE,158,3.4,3.4,53,0.00,,---,0.00,VWS V13.01,2013-07-20 22:09:00,
2013-07-20 18:15:00,86.2,71.6,29.95,SSE,158,3.4,3.6,62,0.00,,---,0.00,VWS V13.01,2013-07-20 22:15:00,
2013-07-20 18:20:00,86.2,71.6,29.95,SSW,202,0.0,3.6,62,0.00,,---,0.00,VWS V13.01,2013-07-20 22:20:00,
2013-07-20 18:25:00,85.5,71.0,29.96,SSW,202,0.0,3.6,62,0.00,,---,0.00,VWS V13.01,2013-07-20 22:25:00,
2013-07-20 18:30:00,85.1,70.6,29.96,SW,225,0.9,3.6,62,0.00,,---,0.00,VWS V13.01,2013-07-20 22:30:00,
2013-07-20 18:35:00,84.7,70.3,29.96,SSW,202,2.2,5.8,62,0.00,,---,0.00,VWS V13.01,2013-07-20 22:35:00,
2013-07-20 18:40:00,84.6,72.0,29.96,SW,225,0.0,5.8,66,0.00,,---,0.00,VWS V13.01,2013-07-20 22:40:00,
2013-07-20 18:45:00,84.4,71.8,29.96,SW,225,0.0,5.8,66,0.00,,---,0.00,VWS V13.01,2013-07-20 22:45:00,
2013-07-20 18:50:00,84.4,71.8,29.96,SW,225,0.0,5.8,66,0.00,,---,0.00,VWS V13.01,2013-07-20 22:50:00,
2013-07-20 18:55:00,84.0,71.4,29.96,SW,225,0.0,5.8,66,0.00,,---,0.00,VWS V13.01,2013-07-20 22:55:00,
2013-07-20 19:00:00,84.0,71.4,29.97,SSW,202,0.0,0.0,66,0.00,,---,0.00,VWS V13.01,2013-07-20 23:00:00,
2013-07-20 19:06:00,83.5,70.9,29.98,West,270,0.0,6.7,66,0.00,,---,0.00,VWS V13.01,2013-07-20 23:06:00,
2013-07-20 19:11:00,82.4,69.9,29.97,WNW,292,0.0,6.7,66,0.00,,---,0.00,VWS V13.01,2013-07-20 23:11:00,
2013-07-20 19:17:00,81.5,69.1,29.96,WSW,248,0.0,6.7,66,0.00,,---,0.00,VWS V13.01,2013-07-20 23:17:00,
2013-07-20 19:22:00,81.3,67.1,29.96,WSW,248,0.0,6.7,62,0.00,,---,0.00,VWS V13.01,2013-07-20 23:22:00,
2013-07-20 19:27:00,81.0,66.7,29.96,WSW,248,0.0,6.7,62,0.00,,---,0.00,VWS V13.01,2013-07-20 23:27:00,
2013-07-20 19:32:00,81.0,67.2,29.96,WSW,248,0.0,6.7,63,0.00,,---,0.00,VWS V13.01,2013-07-20 23:32:00,
2013-07-20 19:37:00,80.2,66.5,29.96,NW,315,0.0,6.7,63,0.02,,---,0.02,VWS V13.01,2013-07-20 23:37:00,
2013-07-20 19:42:00,79.9,66.2,29.97,WSW,248,0.0,6.7,63,0.02,,---,0.02,VWS V13.01,2013-07-20 23:42:00,
2013-07-20 19:47:00,79.7,66.0,29.97,WNW,292,0.0,6.7,63,0.02,,---,0.02,VWS V13.01,2013-07-20 23:47:00,
2013-07-20 19:52:00,79.9,66.2,29.96,WNW,292,0.0,6.7,63,0.02,,---,0.02,VWS V13.01,2013-07-20 23:52:00,
2013-07-20 19:57:00,79.7,66.0,29.96,WNW,292,0.0,6.7,63,0.02,,---,0.02,VWS V13.01,2013-07-20 23:57:00,
2013-07-20 20:02:00,79.7,67.3,29.96,WNW,292,0.0,0.0,66,0.02,,---,0.02,VWS V13.01,2013-07-21 00:02:00,
2013-07-20 20:07:00,79.5,67.2,29.96,WNW,292,0.0,0.0,66,0.02,,---,0.02,VWS V13.01,2013-07-21 00:07:00,
2013-07-20 20:12:00,79.3,67.0,29.97,WNW,292,0.0,0.0,66,0.02,,---,0.02,VWS V13.01,2013-07-21 00:12:00,
2013-07-20 20:17:00,79.3,68.3,29.96,WNW,292,0.0,0.0,69,0.02,,---,0.02,VWS V13.01,2013-07-21 00:17:00,
2013-07-20 20:22:00,79.2,68.1,29.97,WNW,292,0.0,0.0,69,0.02,,---,0.02,VWS V13.01,2013-07-21 00:22:00,
2013-07-20 20:28:00,79.2,68.1,29.97,WNW,292,0.0,0.0,69,0.02,,---,0.02,VWS V13.01,2013-07-21 00:28:00,
2013-07-20 20:33:00,79.2,68.1,29.97,WNW,292,0.0,0.0,69,0.00,,---,0.02,VWS V13.01,2013-07-21 00:33:00,
2013-07-20 20:38:00,79.2,68.1,29.97,WNW,292,0.0,0.0,69,0.00,,---,0.02,VWS V13.01,2013-07-21 00:38:00,
2013-07-20 20:43:00,79.0,68.4,29.97,WNW,292,0.0,0.0,70,0.00,,---,0.02,VWS V13.01,2013-07-21 00:43:00,
2013-07-20 20:49:00,79.0,68.4,29.97,WNW,292,0.0,0.0,70,0.00,,---,0.02,VWS V13.01,2013-07-21 00:49:00,
2013-07-20 20:55:00,79.2,68.9,29.96,WNW,292,0.0,0.0,71,0.00,,---,0.02,VWS V13.01,2013-07-21 00:55:00,
2013-07-20 21:00:00,79.0,68.8,29.96,WNW,292,0.0,0.0,71,0.00,,---,0.02,VWS V13.01,2013-07-21 01:00:00,
2013-07-20 21:05:00,79.0,68.8,29.96,WNW,292,0.0,0.0,71,0.00,,---,0.02,VWS V13.01,2013-07-21 01:05:00,
2013-07-20 21:10:00,79.0,68.8,29.96,WNW,292,0.0,0.0,71,0.00,,---,0.02,VWS V13.01,2013-07-21 01:10:00,
2013-07-20 21:16:00,79.0,68.8,29.97,WNW,292,0.0,0.0,71,0.00,,---,0.02,VWS V13.01,2013-07-21 01:16:00,
2013-07-20 21:21:00,78.8,68.6,29.97,WNW,292,0.0,0.0,71,0.00,,---,0.02,VWS V13.01,2013-07-21 01:21:00,
2013-07-20 21:26:00,79.0,68.8,29.97,WNW,292,0.0,0.0,71,0.00,,---,0.02,VWS V13.01,2013-07-21 01:26:00,
2013-07-20 21:31:00,78.6,68.4,29.97,WNW,292,0.0,0.0,71,0.00,,---,0.02,VWS V13.01,2013-07-21 01:31:00,
2013-07-20 21:36:00,78.6,68.8,29.98,WNW,292,0.0,0.0,72,0.00,,---,0.02,VWS V13.01,2013-07-21 01:36:00,
2013-07-20 21:41:00,78.4,68.7,29.97,WNW,292,0.0,0.0,72,0.00,,---,0.02,VWS V13.01,2013-07-21 01:41:00,
2013-07-20 21:47:00,78.4,68.7,29.98,WNW,292,0.0,0.0,72,0.00,,---,0.02,VWS V13.01,2013-07-21 01:47:00,
2013-07-20 21:52:00,78.6,68.8,29.98,WNW,292,0.0,0.0,72,0.00,,---,0.02,VWS V13.01,2013-07-21 01:52:00,
2013-07-20 21:57:00,78.6,68.8,29.98,WNW,292,0.0,0.0,72,0.00,,---,0.02,VWS V13.01,2013-07-21 01:57:00,
2013-07-20 22:02:00,78.6,68.8,29.98,WNW,292,0.0,0.0,72,0.00,,---,0.02,VWS V13.01,2013-07-21 02:02:00,
2013-07-20 22:07:00,78.4,68.7,29.99,WNW,292,0.0,0.0,72,0.00,,---,0.02,VWS V13.01,2013-07-21 02:07:00,
2013-07-20 22:13:00,78.3,68.9,29.99,WNW,292,0.0,0.0,73,0.00,,---,0.02,VWS V13.01,2013-07-21 02:13:00,
2013-07-20 22:18:00,78.3,68.9,29.99,WNW,292,0.0,0.0,73,0.00,,---,0.02,VWS V13.01,2013-07-21 02:18:00,
2013-07-20 22:23:00,78.3,68.9,29.99,WNW,292,0.0,0.0,73,0.00,,---,0.02,VWS V13.01,2013-07-21 02:23:00,
2013-07-20 22:29:00,78.4,69.1,29.99,WNW,292,0.0,0.0,73,0.00,,---,0.02,VWS V13.01,2013-07-21 02:29:00,
2013-07-20 22:34:00,78.3,68.9,30.00,WNW,292,0.0,0.0,73,0.00,,---,0.02,VWS V13.01,2013-07-21 02:34:00,
2013-07-20 22:40:00,78.4,69.1,30.00,WNW,292,0.0,0.0,73,0.00,,---,0.02,VWS V13.01,2013-07-21 02:40:00,
2013-07-20 22:45:00,78.3,68.9,30.00,WNW,292,0.0,0.0,73,0.00,,---,0.02,VWS V13.01,2013-07-21 02:45:00,
2013-07-20 22:51:00,78.3,68.9,30.01,WNW,292,0.0,0.0,73,0.00,,---,0.02,VWS V13.01,2013-07-21 02:51:00,
2013-07-20 22:57:00,78.3,68.9,30.01,WNW,292,0.0,0.0,73,0.00,,---,0.02,VWS V13.01,2013-07-21 02:57:00,
2013-07-20 23:02:00,78.3,68.9,30.01,WNW,292,0.0,0.0,73,0.00,,---,0.02,VWS V13.01,2013-07-21 03:02:00,
2013-07-20 23:07:00,78.3,68.9,30.01,WNW,292,0.0,0.0,73,0.00,,---,0.02,VWS V13.01,2013-07-21 03:07:00,
2013-07-20 23:12:00,78.3,68.9,30.00,WNW,292,0.0,0.0,73,0.00,,---,0.02,VWS V13.01,2013-07-21 03:12:00,
2013-07-20 23:17:00,78.3,68.9,30.00,WNW,292,0.0,0.0,73,0.00,,---,0.02,VWS V13.01,2013-07-21 03:17:00,
2013-07-20 23:23:00,78.3,68.9,30.00,WNW,292,0.0,0.0,73,0.00,,---,0.02,VWS V13.01,2013-07-21 03:23:00,
2013-07-20 23:28:00,78.3,68.9,30.00,WNW,292,0.0,0.0,73,0.00,,---,0.02,VWS V13.01,2013-07-21 03:28:00,
2013-07-20 23:33:00,78.1,68.7,30.00,WNW,292,0.0,0.0,73,0.00,,---,0.02,VWS V13.01,2013-07-21 03:33:00,
2013-07-20 23:38:00,78.1,68.7,30.00,WNW,292,0.0,0.0,73,0.00,,---,0.02,VWS V13.01,2013-07-21 03:38:00,
2013-07-20 23:43:00,77.9,68.6,30.00,WNW,292,0.0,0.0,73,0.00,,---,0.02,VWS V13.01,2013-07-21 03:43:00,
2013-07-20 23:48:00,77.9,68.6,30.00,WNW,292,0.0,0.0,73,0.00,,---,0.02,VWS V13.01,2013-07-21 03:48:00,
2013-07-20 23:54:00,78.1,68.7,30.00,WNW,292,0.0,0.0,73,0.00,,---,0.02,VWS V13.01,2013-07-21 03:54:00,
2013-07-20 23:59:00,78.1,69.1,30.00,WNW,292,0.0,0.0,74,0.00,,---,0.02,VWS V13.01,2013-07-21 03:59:00,